Regional Weather Roundup
Issued by NWS

Home | Current Version | Previous Version | Text Only | Print | Product List | Glossary On
Versions: 1 2 3 4 5 6 7 8 9 10 11 12 13 14 15 16 17 18 19 20 21 22 23 24 25 26 27 28 29 30 31 32 33 34 35 36 37 38 39 40 41 42 43 44 45 46 47 48 49 50
000
ASUS43 KLOT 280400
RWRIL

ILLINOIS REGIONAL WEATHER ROUNDUP
NATIONAL WEATHER SERVICE CHICAGO/ROMEOVILLE IL
1000 PM CST SAT DEC 27 2014

NOTE: "FAIR" INDICATES FEW OR NO CLOUDS BELOW 12,000 FEET WITH NO
SIGNIFICANT WEATHER AND/OR OBSTRUCTIONS TO VISIBILITY.

* THESE STATIONS ARE NOT UNDER NWS QUALITY CONTROL. THEY ALSO MAY NOT
  REPORT WEATHER SUCH AS PRECIPITATION OR FOG.

ILZ001-002-007-009-015-016-024-280500-
NORTHWEST ILLINOIS

CITY           SKY/WX    TMP DP  RH WIND       PRES   REMARKS
MOLINE         PTCLDY    27  20  75 NW10      30.21R WCI  17
STERLING*      CLOUDY    28  21  74 NW16      30.17R WCI  17
$$

ILZ003-004-008-010-011-017-018-280500-
NORTH CENTRAL ILLINOIS

CITY           SKY/WX    TMP DP  RH WIND       PRES   REMARKS
ROCKFORD       CLOUDY    31  24  75 W9        30.15R WCI  23
FREEPORT*      CLOUDY    28  23  83 W9        30.16R WCI  19
$$

ILZ005-006-012>014-019>023-280500-
NORTHEAST ILLINOIS

CITY           SKY/WX    TMP DP  RH WIND       PRES   REMARKS
CHICAGO-OHARE  CLOUDY    32  25  75 NW16      30.11R WCI  21
CHICAGO-MIDWAY MOCLDY    34  26  72 NW13      30.11R WCI  25
AURORA         PTCLDY    29  25  85 W8        30.13R WCI  21
WAUKEGAN       CLOUDY    32  24  72 W8        30.09R WCI  25
DUPAGE AIRPORT PTCLDY    30  24  78 W9        30.11S WCI  22
WHEELING       CLOUDY    33  25  72 W12       30.12R WCI  24
NORTHERLY ISL    N/A     35  26  70 W8          N/A  WCI  29
$$

LMZ740>746-280500-
SOUTHERN LAKE MICHIGAN

STATION/POSITION SKY/WX   TEMP    WIND        PRES    VSBY  WAVE
                          AIR SEA DIR/SP/G                  HT/PER
                          (F)     (DEG/KT/KT) (MB)    (MI)  (FT/S)
WAUKEGAN HARBOR            33     290/  4/ 15   N/A
HARRISON CRIB              34     300/ 13/ 16   N/A
BURNHAM HARBOR             35     300/  8/ 14   N/A
CALUMET HARBOR             35     280/  8/ 13 1018.1R
MICHIGAN CITY              35     270/ 19/ 22   N/A
$$

ILZ025>027-034>036-040-047-049-050-058-095>099-280500-
WEST-CENTRAL ILLINOIS

CITY           SKY/WX    TMP DP  RH WIND       PRES   REMARKS
QUINCY         CLOUDY    30  22  72 W10       30.22S WCI  21
MACOMB*        CLOUDY    30  25  82 NW10      30.23F WCI  21
$$

ILZ028>032-037-038-041>044-048-051>054-059>061-280500-
CENTRAL ILLINOIS

CITY           SKY/WX    TMP DP  RH WIND       PRES   REMARKS
DECATUR        CLOUDY    33  27  78 NW13G20   30.17S WCI  24
PEORIA         CLOUDY    32  23  69 NW10      30.19R WCI  24
LINCOLN*       CLOUDY    33  28  81 NW7       30.19S WCI  27
SPRINGFIELD    CLOUDY    33  25  72 NW14G23   30.19S WCI  23
TAYLORVILLE    NOT AVBL
$$

ILZ033-039-045-046-055>057-062-063-280500-
EAST-CENTRAL ILLINOIS

CITY           SKY/WX    TMP DP  RH WIND       PRES   REMARKS
CHAMPAIGN      CLOUDY    32  27  81 NW13      30.15S WCI  22
DANVILLE*      CLOUDY    32  30  92 NW8       30.11S WCI  25
MATTOON        CLOUDY    33  29  85 NW14      30.15S WCI  23
$$

ILZ079-100>102-280500-
SOUTHWEST ILLINOIS

CITY           SKY/WX    TMP DP  RH WIND       PRES   REMARKS
ALTON          CLOUDY    34  31  90 NW7       30.21R WCI  28
BELLEVILLE     CLOUDY    35  35  99 W7        30.20S WCI  30
CAHOKIA*       CLOUDY    37  32  82 NW13      30.21S WCI  29
SPARTA*        CLOUDY    35  33  92 NW5       30.20F WCI  31
$$

ILZ064>066-069>071-074>076-080>082-084>086-088>090-092>094-280500-
SOUTH-CENTRAL ILLINOIS

CITY           SKY/WX    TMP DP  RH WIND       PRES   REMARKS
CARBONDALE     CLOUDY    37  35  92 NW10      30.19R WCI  30
MT. VERNON     CLOUDY    37  30  75 N3        30.17F
SALEM*         CLOUDY    38  34  87 NW6       30.18F WCI  33
$$

ILZ067-068-072-073-078-083-087-091-280500-
SOUTHEAST ILLINOIS

CITY           SKY/WX    TMP DP  RH WIND       PRES   REMARKS
LAWRENCEVILLE  LGT RAIN  38  37  97 NW8       30.15F WCI  32
ROBINSON*      RAIN      37  36  95 N10       30.16S WCI  30
CARMI*         RAIN      40  40 100 N9        30.15F
$$

ABBREVIATIONS USED IN REMARKS
   TC - TEMPERATURE IN CELSIUS
  WCI - WIND CHILL INDEX
   HX - HEAT INDEX
  VSB - VISIBILITY
$$




USA.gov is the U.S. government's official web portal to all federal, state and local government web resources and services.